STARLINK-32326, 61674

Orbit data source: Space-Track

STARLINK-32326, 61674 is a payload satellite owned by SpaceX/Seattle (US) in LEO that was launched on Sat, 26 Oct 2024 UTC via an FALCON 9 launch vehicle from the Air Force Eastern Test Range (AFETR). Payload-class satellites include a variety of spacecraft equipped with specific instruments for various scientific and technological missions. These include communications satellites like Starlink; space stations such as the ISS; scientific satellites like the Hubble; Earth observation satellites from companies like Planet Labs, Umbra, and HawkEye 360; GPS; miniature CubeSats for education and research; and military/defense satellites.

Loading next visibility...
Identifier
61674, 2024-193P
Orbit
LEO
Last TLE update
16 hours ago
Origin
Manufacturer
SpaceX/Seattle
Mission
Operational Commercial Communications
Bus & Motor
STARLINK V2M, Unknown motor
Mass
730 kg wet, ~700 kg dry
Launch date (UTC)
2024-10-26 (8 months ago)
Launch vehicle
FALCON 9
Launch site
Air Force Eastern Test Range (AFETR)
Object type
Payload
Rocket body
Debris
Shape & HBR
Box + 2 Pan, 29 m
Radar Cross Section
36.964 m², Large (>1 m²)

Expand to show TLE details & history

TLE from 16 hours ago
0 STARLINK-32326
1 61674U 24193P   25181.73377168  .00000276  00000-0  21461-4 0  9995
2 61674  53.1603 181.1296 0001182  82.2767 277.8368 15.30192373 37955
Epoch: 2025-06-30T17:36Z
TLE epoch observation values (Epoch: 2025-06-30T17:36:37.873Z)
Latitude
-0°
Longitude
-2.06754°
Altitude
476.027 km
Speed
7.629 km/s
True Right ascension
12h 04m 31s
True Declination
0° 00' 00"
Sunlit
Object was in daylight at epoch
Visualization orbit readout
Latitude
-10.79754°
Longitude
-13.25964°
Altitude
478.269 km
Speed
7.627 km/s
Apparent Right ascension
10h 17m 54s
Apparent Declination
-25° 49' 28"
Sunlit
Object is in daylight
Visualization observer readout
Local Sidereal Time
20:51:53
Azimuth
301.637° NW
Elevation
-67.199°
Doppler factor
1
Orbital elements
Apogee altitude
476.304 km
Perigee altitude
474.684 km
Semi-major axis
6,853.631 km
Eccentricity
0.00012
Inclination
53.1603°
RAAN
181.1296°
Arg. of periapsis
82.2767°
True anomaly
Unknown
Mean anomaly
277.8368°
Eccentric anomaly
Unknown
Mean motion
3.82527 °/min
Orbital period
94.11 mins
BSTAR
0.000021461
Loading maneuver chart data...
Loading SW <> Apogee altitude chart data...
Loading historical data...
Loading historical data...
Loading historical data...
Loading historical data...
Loading historical data...
Loading historical data...
Loading historical data...

STARLINK-32326 Visibility forecast

Observer location: undefined°, undefined°

Span
Click to sort rows by Start time (UTC) header in descending order
Start Az.
Max El. time (UTC)
Max El. Az.
Max El.
End time (UTC)
End Az.
6 mins2025-07-01 09:47:38.801Z304.692° NW2025-07-01 09:50:38.801Z229.642° WSW43.144°2025-07-01 09:53:38.801Z140.479° SSE
6 mins2025-07-02 02:43:38.801Z241.094° WSW2025-07-02 02:46:38.801Z10.379° NNE40.416°2025-07-02 02:49:38.801Z45.419° ENE
4 mins2025-07-02 07:40:38.801Z340.458° N2025-07-02 07:42:38.801Z16.816° NNE18.099°2025-07-02 07:44:38.801Z57.845° ENE
|